TimeMDT,TemperatureF,Dew PointF,Humidity,Sea Level PressureIn,VisibilityMPH,Wind Direction,Wind SpeedMPH,Gust SpeedMPH,PrecipitationIn,Events,Conditions,WindDirDegrees,DateUTC
12:15 AM,62.6,42.8,48,30.23,10.0,NNW,5.8,-,N/A,,Mostly Cloudy,340,2012-07-02 06:15:00
12:35 AM,64.4,39.2,40,30.23,10.0,South,5.8,-,N/A,,Scattered Clouds,170,2012-07-02 06:35:00
12:55 AM,62.6,39.2,42,30.22,10.0,SW,3.5,-,N/A,,Clear,220,2012-07-02 06:55:00
1:15 AM,60.8,39.2,45,30.22,10.0,SSE,10.4,-,N/A,,Clear,160,2012-07-02 07:15:00
1:35 AM,57.2,41.0,55,30.22,10.0,SE,10.4,-,N/A,,Clear,140,2012-07-02 07:35:00
1:55 AM,57.2,41.0,55,30.22,10.0,SE,10.4,-,N/A,,Clear,140,2012-07-02 07:55:00
2:15 AM,57.2,39.2,51,30.21,10.0,SE,8.1,-,N/A,,Clear,130,2012-07-02 08:15:00
2:35 AM,57.2,39.2,51,30.21,10.0,East,9.2,-,N/A,,Clear,80,2012-07-02 08:35:00
2:55 AM,57.2,39.2,51,30.21,10.0,ENE,6.9,-,N/A,,Clear,70,2012-07-02 08:55:00
3:15 AM,59.0,41.0,51,30.21,10.0,East,6.9,-,N/A,,Clear,80,2012-07-02 09:15:00
3:35 AM,59.0,39.2,48,30.21,10.0,ENE,5.8,-,N/A,,Clear,70,2012-07-02 09:35:00
3:55 AM,57.2,37.4,48,30.22,10.0,North,3.5,-,N/A,,Clear,10,2012-07-02 09:55:00
4:15 AM,57.2,37.4,48,30.22,10.0,NNW,4.6,-,N/A,,Clear,340,2012-07-02 10:15:00
4:35 AM,55.4,37.4,51,30.22,10.0,North,5.8,-,N/A,,Clear,360,2012-07-02 10:35:00
4:55 AM,53.6,37.4,54,30.23,10.0,NNE,6.9,-,N/A,,Clear,20,2012-07-02 10:55:00
5:15 AM,55.4,37.4,51,30.24,10.0,North,5.8,-,N/A,,Clear,360,2012-07-02 11:15:00
5:35 AM,55.4,37.4,51,30.24,10.0,NNE,4.6,-,N/A,,Clear,20,2012-07-02 11:35:00
5:55 AM,51.8,37.4,58,30.25,10.0,ENE,5.8,-,N/A,,Clear,60,2012-07-02 11:55:00
6:15 AM,57.2,39.2,51,30.25,10.0,East,5.8,-,N/A,,Clear,100,2012-07-02 12:15:00
6:35 AM,55.4,39.2,54,30.25,10.0,SE,6.9,-,N/A,,Clear,130,2012-07-02 12:35:00
6:55 AM,57.2,41.0,55,30.25,10.0,Calm,Calm,-,N/A,,Clear,0,2012-07-02 12:55:00
7:15 AM,60.8,42.8,52,30.26,10.0,Calm,Calm,-,N/A,,Clear,0,2012-07-02 13:15:00
7:35 AM,62.6,42.8,48,30.26,10.0,NNW,4.6,-,N/A,,Clear,340,2012-07-02 13:35:00
7:55 AM,64.4,41.0,42,30.26,10.0,North,4.6,-,N/A,,Clear,350,2012-07-02 13:55:00
8:15 AM,68.0,41.0,37,30.26,10.0,North,3.5,-,N/A,,Clear,350,2012-07-02 14:15:00
8:35 AM,71.6,42.8,35,30.26,10.0,NNW,3.5,-,N/A,,Clear,340,2012-07-02 14:35:00
8:55 AM,73.4,42.8,33,30.26,10.0,Calm,Calm,-,N/A,,Clear,0,2012-07-02 14:55:00
9:15 AM,73.4,42.8,33,30.25,10.0,Calm,Calm,-,N/A,,Clear,0,2012-07-02 15:15:00
9:35 AM,75.2,44.6,34,30.24,10.0,Calm,Calm,-,N/A,,Clear,0,2012-07-02 15:35:00
9:55 AM,77.0,44.6,32,30.23,10.0,SW,4.6,-,N/A,,Clear,220,2012-07-02 15:55:00
10:15 AM,78.8,44.6,30,30.23,10.0,WSW,8.1,-,N/A,,Clear,240,2012-07-02 16:15:00
10:35 AM,80.6,42.8,26,30.23,10.0,Calm,Calm,-,N/A,,Clear,0,2012-07-02 16:35:00
10:55 AM,80.6,42.8,26,30.22,10.0,WSW,5.8,-,N/A,,Clear,240,2012-07-02 16:55:00
11:15 AM,82.4,42.8,25,30.21,10.0,Calm,Calm,-,N/A,,Clear,0,2012-07-02 17:15:00
11:35 AM,84.2,42.8,23,30.20,10.0,North,6.9,-,N/A,,Clear,350,2012-07-02 17:35:00
11:55 AM,86.0,42.8,22,30.19,10.0,WNW,4.6,-,N/A,,Clear,300,2012-07-02 17:55:00
12:15 PM,86.0,41.0,20,30.18,10.0,Calm,Calm,-,N/A,,Clear,0,2012-07-02 18:15:00
12:35 PM,87.8,42.8,21,30.17,10.0,West,9.2,-,N/A,,Clear,260,2012-07-02 18:35:00
12:55 PM,87.8,42.8,21,30.16,10.0,SSE,5.8,-,N/A,,Clear,150,2012-07-02 18:55:00
1:15 PM,89.6,41.0,18,30.15,10.0,NE,3.5,-,N/A,Thunderstorm,Clear,50,2012-07-02 19:15:00
1:35 PM,91.4,39.2,16,30.16,10.0,NE,8.1,-,N/A,Thunderstorm,Clear,40,2012-07-02 19:35:00
1:55 PM,84.2,42.8,23,30.17,5.0,ENE,29.9,43.7,N/A,,Mostly Cloudy,70,2012-07-02 19:55:00
2:15 PM,78.8,44.6,30,30.18,10.0,ENE,27.6,31.1,N/A,,Overcast,70,2012-07-02 20:15:00
2:35 PM,78.8,44.6,30,30.18,10.0,ENE,18.4,27.6,N/A,,Overcast,70,2012-07-02 20:35:00
2:55 PM,82.4,42.8,25,30.19,10.0,SSE,12.7,-,N/A,,Mostly Cloudy,160,2012-07-02 20:55:00
3:15 PM,82.4,41.0,23,30.17,10.0,SSE,12.7,-,N/A,,Clear,160,2012-07-02 21:15:00
3:35 PM,84.2,41.0,22,30.16,10.0,SE,13.8,19.6,N/A,,Clear,140,2012-07-02 21:35:00
3:55 PM,87.8,39.2,18,30.16,10.0,SE,16.1,-,N/A,,Scattered Clouds,130,2012-07-02 21:55:00
4:15 PM,84.2,37.4,19,30.16,10.0,East,10.4,17.3,N/A,,Scattered Clouds,100,2012-07-02 22:15:00
4:35 PM,82.4,42.8,25,30.16,10.0,NNW,15.0,20.7,N/A,,Mostly Cloudy,340,2012-07-02 22:35:00
4:55 PM,78.8,42.8,28,30.17,10.0,WNW,15.0,20.7,N/A,,Scattered Clouds,300,2012-07-02 22:55:00
5:15 PM,78.8,42.8,28,30.17,10.0,NNW,12.7,-,N/A,,Clear,330,2012-07-02 23:15:00
5:35 PM,78.8,42.8,28,30.18,10.0,NNW,6.9,-,N/A,,Clear,330,2012-07-02 23:35:00
5:55 PM,78.8,42.8,28,30.18,10.0,Calm,Calm,-,N/A,,Clear,0,2012-07-02 23:55:00
6:15 PM,78.8,42.8,28,30.19,10.0,Calm,Calm,-,N/A,,Partly Cloudy,0,2012-07-03 00:15:00
6:35 PM,78.8,42.8,28,30.19,10.0,SW,15.0,20.7,N/A,,Partly Cloudy,220,2012-07-03 00:35:00
6:55 PM,77.0,42.8,29,30.19,10.0,SW,15.0,-,N/A,,Clear,220,2012-07-03 00:55:00
7:15 PM,75.2,37.4,25,30.19,10.0,South,18.4,27.6,N/A,,Clear,180,2012-07-03 01:15:00
7:55 PM,75.2,37.4,25,30.18,10.0,SW,16.1,-,N/A,,Partly Cloudy,230,2012-07-03 01:55:00
8:15 PM,75.2,37.4,25,30.19,10.0,ESE,10.4,-,N/A,,Scattered Clouds,120,2012-07-03 02:15:00
8:35 PM,73.4,37.4,27,30.20,10.0,NE,3.5,-,N/A,,Partly Cloudy,40,2012-07-03 02:35:00
8:55 PM,71.6,37.4,29,30.20,10.0,WNW,5.8,-,N/A,,Scattered Clouds,300,2012-07-03 02:55:00
9:15 PM,71.6,37.4,29,30.21,10.0,West,11.5,-,N/A,,Mostly Cloudy,270,2012-07-03 03:15:00
9:35 PM,73.4,37.4,27,30.22,10.0,WSW,6.9,-,N/A,,Partly Cloudy,240,2012-07-03 03:35:00
9:55 PM,69.8,39.2,33,30.23,10.0,NW,3.5,-,N/A,,Clear,310,2012-07-03 03:55:00
10:15 PM,69.8,39.2,33,30.23,10.0,Calm,Calm,-,N/A,,Clear,0,2012-07-03 04:15:00
10:35 PM,69.8,39.2,33,30.24,10.0,North,4.6,-,N/A,,Clear,350,2012-07-03 04:35:00
10:55 PM,66.2,37.4,35,30.23,10.0,North,6.9,-,N/A,,Clear,360,2012-07-03 04:55:00
11:15 PM,66.2,39.2,37,30.22,10.0,ENE,5.8,-,N/A,,Clear,60,2012-07-03 05:15:00
11:35 PM,66.2,39.2,37,30.22,10.0,ENE,6.9,-,N/A,,Clear,60,2012-07-03 05:35:00
11:55 PM,66.2,39.2,37,30.22,10.0,ENE,4.6,-,N/A,,Clear,60,2012-07-03 05:55:00